Tracking 25612 objects as of 20-May-2022
HD Live streaming from Space Station
objects crossing your sky now

BREEZE-M R/B

Track BREEZE-M R/B now!


NORAD ID: 38868
Int'l Code: 2012-057B
Perigee: 36,976.1 km
Apogee: 42,012.4 km
Inclination: 8.2 °
Period: 1,629.2 minutes
Semi major axis: 45865 km
RCS: 0.003 m2 (small)
Launch date: October 14, 2012
Source: Commonwealth of Independent States (former USSR) (CIS)
Launch site: TYURATAM MISSILE AND SPACE COMPLEX (TTMTR)

Note: This is a ROCKET BODY
aabbcc
Your satellite tracking list
Your tracking list is empty




NASA's NSSDC Master Catalog

Two Line Element Set (TLE):
1 38868U 12057B   22139.46989926 -.00000149  00000-0  00000+0 0  9992
2 38868   8.1532  67.2111 0549027  15.1119 194.4902  0.88384672 30971
Source of the keplerian elements: AFSPC